KFLLMYGF

Guest
Details From KFLL - Fort Lauderdale Hollywood Intl
To MYGF - Grand Bahama Intl
Flight Number -
Tags Generated
Created
Modified
Stats Distance 83 nm / 154 km
Max Altitude 0 ft / 0 m
Waypoints 2
Social Downloads 4
Likes 0
Share VATSIM

Download

Looking for another format? Having issues loading an existing format? Contact us
Advertisement - Login to hide

Notes

Generated

Route

KFLL MYGF

ID Type Via Altitude Latitude Longitude Leg Dist Tot Dist Heading (true) Name
O KFLL APT - 0 ft / 0 m 26.06598˚ -80.16032˚ - 0 nm - -
O MYGF APT - 0 ft / 0 m 26.55134˚ -78.71030˚ 83 nm 83 nm 69° / 70° -

Altitude Profile

Advertisement - Login to hide

KFLL

Details ICAO KFLL (FLL)
Name Fort Lauderdale Hollywood Intl
Region United States
Timezone America/New_York (UTC-4.0)
Stats Elevation 9 ft / 3 m (AMSL)
Location 26.071638° -80.152694°
Runways 2
Magnetic Variation 6.809° W

METAR

KFLL 211353Z 11015KT 10SM FEW021 SCT034 SCT100 BKN160 27/24 A3005 RMK AO2 SLP176 T02670239

Decode

TAF

TAF KFLL 211144Z 2112/2218 11015KT P6SM VCSH SCT021 BKN040 BKN080 TEMPO 2112/2115 4SM SHRA BKN018 FM211700 13015G22KT P6SM SCT025 BKN040 BKN120 FM212100 12015KT P6SM OVC050 FM220200 12008KT P6SM SCT020 BKN080 BKN150

Decode

Departure Runways

ID Width Length Bearing (true) Bearing (mag) Surface Threshold Offset Overrun Length
09L 150 ft / 46 m 8,987 ft / 2,739 m 90.35° 97.16° Asphalt 577 ft / 176 m 10 ft / 3 m
09R 100 ft / 30 m 5,268 ft / 1,606 m 90.38° 97.19° Asphalt 320 ft / 98 m 0 ft / 0 m
27L 100 ft / 30 m 5,268 ft / 1,606 m 270.39° 277.20° Asphalt 142 ft / 43 m 0 ft / 0 m
27R 150 ft / 46 m 8,987 ft / 2,739 m 270.37° 277.18° Asphalt 604 ft / 184 m 10 ft / 3 m

MYGF

Details ICAO MYGF (FPO)
Name Grand Bahama Intl
Region Bahamas
Timezone America/Nassau (UTC-4.0)
Stats Elevation 7 ft / 2 m (AMSL)
Location 26.558684° -78.695553°
Runways 1
Magnetic Variation 7.763° W

METAR

MYGF 211400Z 14005KT 9999 SCT016 BKN060 OVC120 26/22 A3009

Decode

TAF

Not found

Destination Runways

ID Width Length Bearing (true) Bearing (mag) Surface Threshold Offset Overrun Length
06 151 ft / 46 m 11,016 ft / 3,358 m 60.89° 68.65° Asphalt 0 ft / 0 m 194 ft / 59 m
24 151 ft / 46 m 11,016 ft / 3,358 m 240.91° 248.67° Asphalt 0 ft / 0 m 200 ft / 61 m

Approach Navaids

Runway Type Ident Frequency Range Bearing (true) Bearing (mag) Slope Elevation
06 Localiser IZFP 109.70 MHz 18 nm / 33 km 60.91° 68.67° - 7 ft / 2 m (AMSL)
06 Glidescope IZFP 109.70 MHz 10 nm / 19 km 60.90° 68.66° 3.00° 7 ft / 2 m (AMSL)

Popular Alternatives